This is the latest recevied weather packets stored in our database for station/object K9ZOG. If no packets are shown the sender has not sent any weather packets the latest 10 day(s).
| Time | Temp. | Humidity | Pressure | Rain* | Wind** | Luminosity | Snow |
|---|---|---|---|---|---|---|---|
| 1777749252 | 9.44° C | 48% | 1018.5 hPa | 0 mm | - | 850 W/m² | - |
| 1777748952 | 9.44° C | 51% | 1018.6 hPa | 0 mm | - | 607 W/m² | - |
| 1777748652 | 9.44° C | 50% | 1018.6 hPa | 0 mm | - | 870 W/m² | - |
| 1777748353 | 9.44° C | 52% | 1018.6 hPa | 0 mm | - | 876 W/m² | - |
| 1777748052 | 9.44° C | 52% | 1018.7 hPa | 0 mm | - | 884 W/m² | - |
| 1777747753 | 9.44° C | 50% | 1018.8 hPa | 0 mm | - | 889 W/m² | - |
| 1777747453 | 9.44° C | 50% | 1018.7 hPa | 0 mm | - | 898 W/m² | - |
| 1777747152 | 9.44° C | 53% | 1018.8 hPa | 0 mm | - | 905 W/m² | - |
| 1777746852 | 9.44° C | 52% | 1018.9 hPa | 0 mm | - | 910 W/m² | - |
| 1777746552 | 8.89° C | 55% | 1018.8 hPa | 0 mm | - | 922 W/m² | - |
| 1777746252 | 8.89° C | 53% | 1018.9 hPa | 0 mm | - | 925 W/m² | - |
| 1777745953 | 8.89° C | 51% | 1019 hPa | 0 mm | - | 934 W/m² | - |
| 1777745652 | 8.89° C | 52% | 1019 hPa | 0 mm | - | 946 W/m² | - |
| 1777745352 | 8.89° C | 52% | 1019 hPa | 0 mm | - | 943 W/m² | - |
| 1777745053 | 8.89° C | 53% | 1019 hPa | 0 mm | - | 705 W/m² | - |
| 1777744752 | 8.89° C | 52% | 1019 hPa | 0 mm | - | 831 W/m² | - |
| 1777744453 | 8.89° C | 51% | 1019.1 hPa | 0 mm | - | 950 W/m² | - |
| 1777744155 | 8.89° C | 53% | 1019 hPa | 0 mm | - | 889 W/m² | - |
| 1777743853 | 8.33° C | 52% | 1019.1 hPa | 0 mm | - | 321 W/m² | - |
| 1777743553 | 8.33° C | 53% | 1019 hPa | 0 mm | - | 669 W/m² | - |
| 1777743254 | 8.33° C | 50% | 1019.1 hPa | 0 mm | - | 269 W/m² | - |
| 1777742953 | 8.33° C | 49% | 1019 hPa | 0 mm | - | 959 W/m² | - |
| 1777742652 | 8.33° C | 50% | 1019.1 hPa | 0 mm | - | 571 W/m² | - |
| 1777742352 | 8.33° C | 52% | 1019.1 hPa | 0 mm | - | 230 W/m² | - |
| 1777742052 | 8.33° C | 52% | 1019.1 hPa | 0 mm | - | 101 W/m² | - |
* Rain latest hour (hover to see other rain measurements)
** Current wind speed in m/s (hover to see current wind gust speed)